SCP
0 0 0 0 0 0 1 1 1 1 1 1 1 1 0 0 0 0 0 0 0 0 0 0 0 0 0 0 0 0 0 0 0 0 0 0 0 0 0 0 0 0 0
0 0 0 0 0 0 0 1 1 1 1 1 1 1 0 0 0 0 0 0 0 0 0 0 0 0 0 0 0 0 0 0 0 0 0 0 0 0 0 0 0 0 0
0 0 0 0 0 0 0 0 1 1 1 1 1 1 0 0 0 0 0 0 0 0 0 0 0 0 0 0 0 0 0 0 0 0 0 0 0 0 0 0 0 0 0
0 0 0 0 0 0 0 0 0 1 1 1 1 1 1 0 0 0 0 0 0 0 0 0 0 0 0 0 0 0 0 0 0 0 0 0 0 0 0 0 0 0 0
0 0 0 0 0 0 0 0 0 0 1 1 1 1 1 0 0 0 0 0 0 0 0 0 0 0 0 0 0 0 0 0 0 0 0 0 0 0 0 0 0 0 0
0 0 0 0 0 0 0 0 0 0 0 0 1 1 0 0 0 0 0 0 0 0 0 0 0 0 0 0 0 0 0 0 0 0 0 0 0 0 0 0 0 0 0
0 0 0 0 0 0 0 0 0 0 0 0 0 0 0 0 0 0 0 0 0 0 0 0 0 0 0 0 0 0 0 0 0 0 0 0 0 0 0 0 0 0 0
0 0 0 0 0 0 0 0 0 0 0 0 0 0 0 0 0 0 0 0 0 0 0 0 0 0 0 0 0 0 0 0 0 0 0 0 0 0 0 0 0 0 0
0 0 0 0 0 0 0 0 0 0 0 0 0 0 0 0 0 0 0 0 0 0 0 0 0 0 0 0 0 0 0 0 0 0 0 0 0 0 0 0 0 0 0
0 0 0 0 0 0 0 0 0 0 0 0 0 0 0 0 0 0 0 0 0 0 0 0 0 0 0 0 0 0 0 0 0 0 0 0 0 0 0 0 0 0 0
0 0 0 0 0 0 0 0 0 0 0 0 0 0 0 0 0 0 0 0 0 0 0 0 0 0 0 0 0 0 0 0 0 0 0 0 0 0 0 0 0 0 0
0 0 0 0 0 0 0 0 0 0 0 0 0 0 0 0 0 0 0 0 0 0 0 0 0 0 0 0 0 0 0 0 0 0 0 0 0 0 0 0 0 0 0
0 0 0 0 0 0 0 0 0 0 0 0 0 0 0 0 0 0 0 0 0 0 0 0 0 0 0 0 0 0 0 0 0 0 0 0 0 0 0 0 0 0 0
0 0 0 0 0 0 0 0 0 0 0 0 0 0 0 0 0 0 0 0 0 0 0 0 0 0 0 0 0 0 0 0 0 0 0 0 0 0 0 0 0 0 0
0 0 0 0 0 0 0 0 0 0 0 0 0 0 0 0 0 0 0 0 0 0 0 0 0 0 0 0 0 0 0 0 0 0 0 0 0 0 0 0 0 0 0
0 0 0 0 0 0 0 0 0 0 0 0 0 0 0 0 0 0 0 0 0 0 0 0 0 0 0 0 0 0 0 0 0 0 0 0 0 0 0 0 0 0 0
0 0 0 0 0 0 0 0 0 0 0 0 0 0 0 0 0 0 0 0 0 0 0 0 0 0 0 0 0 0 0 0 0 0 0 0 0 0 0 0 0 0 0
0 0 0 0 0 0 0 0 0 0 0 0 0 0 0 0 0 0 0 0 0 0 0 0 0 0 0 0 0 0 0 0 0 0 0 0 0 0 0 0 0 0 0
0 0 0 0 0 0 0 0 0 0 0 0 0 0 0 0 0 0 0 0 0 0 0 0 0 0 0 0 0 0 0 0 0 0 0 0 0 0 0 0 0 0 0
0 0 0 0 0 0 0 0 0 0 0 0 0 0 0 0 0 0 0 0 0 0 0 0 0 0 0 0 0 0 0 0 0 0 0 0 0 0 0 0 0 0 0
0 0 0 0 0 0 0 0 0 0 0 0 0 0 0 0 0 0 0 0 0 0 0 0 0 0 0 0 0 0 0 0 0 0 0 0 0 0 0 0 0 0 0
0 0 0 0 0 0 0 0 0 0 0 0 0 0 0 0 0 0 0 0 0 0 0 0 0 0 0 0 0 0 0 0 0 0 0 0 0 0 0 0 0 0 0
0 0 0 0 0 0 0 0 0 0 0 0 0 0 0 0 0 0 0 0 0 0 0 0 0 0 0 0 0 0 0 0 0 0 0 0 0 0 0 0 0 0 0
0 0 0 0 0 0 0 0 0 0 0 0 0 0 0 0 0 0 0 0 0 0 0 0 0 0 0 0 0 0 0 0 0 0 0 0 0 0 0 0 0 0 0
0 0 0 0 0 0 0 0 0 0 0 0 0 0 0 0 0 0 0 0 0 0 0 0 0 0 0 0 0 0 0 0 0 0 0 0 0 0 0 0 0 0 0
0 0 0 0 0 0 0 0 0 0 0 0 0 0 0 0 0 0 0 0 0 0 0 0 0 0 0 0 0 0 0 0 0 0 0 0 0 0 0 0 0 0 0
Wind_Speed
8 6 6 6 6 7 8 9 9 9 8 5 5 5 4 3 3 3 4 5 5 5 4 3 3 2 2 2 1 1 1 1 1 1 3 4 4 4 4 3 2 2 2
6 6 6 6 7 8 9 9 9 9 9 6 5 4 4 3 3 3 3 4 4 4 4 4 3 2 1 1 0 1 0 1 0 1 1 3 4 3 2 2 1 1 1
10 9 8 8 7 8 9 8 9 9 8 7 4 3 3 3 2 3 2 3 4 4 4 4 3 2 2 1 1 1 2 1 1 1 2 2 3 3 3 2 2 2 2
9 9 9 8 9 9 7 7 8 7 7 8 8 8 6 5 5 4 3 3 3 4 4 4 3 3 2 2 1 1 2 2 2 1 2 3 3 2 3 3 2 2 3
9 10 10 10 9 7 6 6 6 6 6 7 8 8 5 4 3 4 5 4 3 3 4 4 3 3 2 2 1 1 1 1 2 2 2 2 2 4 3 4 2 2 2
8 8 7 7 5 4 4 4 5 5 5 6 7 8 8 7 7 6 5 4 3 2 3 3 3 3 2 2 1 1 1 1 1 2 2 2 2 2 3 4 3 1 1
5 6 6 6 6 6 6 5 6 5 4 5 6 7 8 8 9 8 7 6 3 2 3 3 3 2 2 2 1 1 0 1 1 2 2 2 2 2 2 2 2 2 1
4 4 6 6 6 6 5 5 6 5 4 5 5 5 6 5 4 6 5 5 4 3 4 3 3 2 2 2 1 0 0 0 1 2 2 1 1 1 1 2 2 2 1
3 3 3 4 5 6 5 5 5 4 4 4 4 4 5 6 6 6 5 4 4 4 4 4 4 3 2 2 1 0 0 0 0 0 1 0 0 0 0 1 1 2 3
2 2 2 2 3 4 3 4 4 4 4 4 4 4 4 5 5 6 6 6 5 5 5 4 4 3 2 2 1 0 0 1 0 0 1 1 0 1 1 1 1 1 2
2 1 1 0 1 2 3 3 4 4 5 5 5 5 5 5 5 5 5 5 5 5 5 4 4 3 2 1 1 1 1 1 1 1 2 1 1 1 1 1 1 1 0
2 2 1 1 1 2 3 4 4 4 5 5 5 6 5 5 5 5 5 5 5 5 5 4 4 3 2 2 2 1 1 2 2 2 2 2 2 2 2 2 2 1 1
3 3 2 1 1 2 3 3 4 5 5 6 6 6 5 5 5 5 5 5 5 5 4 4 4 3 2 2 2 2 2 2 2 2 2 2 2 2 2 2 2 1 1
3 3 2 2 2 3 3 4 4 5 6 6 7 6 6 5 5 5 5 5 5 5 4 4 3 3 2 2 2 3 3 4 4 4 3 3 3 2 2 2 2 1 1
4 4 3 3 3 3 3 4 4 5 6 7 7 6 6 5 6 5 5 5 4 5 5 4 3 3 2 2 3 3 4 4 4 4 3 3 3 4 3 2 1 1 1
5 5 4 4 4 4 4 4 5 6 6 7 7 6 6 6 6 6 5 5 4 4 4 4 4 3 2 4 6 5 4 4 4 4 3 2 3 4 5 5 4 3 2
5 6 6 5 5 5 5 6 6 6 7 7 7 7 7 7 6 6 6 5 5 4 4 4 4 3 3 6 6 7 4 4 4 4 3 2 2 3 3 4 6 5 5
7 6 6 7 6 5 5 5 4 6 8 8 8 8 8 7 7 6 6 5 4 4 4 4 4 4 4 7 7 7 4 3 3 3 3 3 2 2 3 2 2 2 2
6 6 6 7 7 6 5 3 4 6 7 8 8 9 9 8 8 7 6 5 4 4 3 4 5 4 4 7 8 8 3 3 2 2 3 3 2 4 5 3 2 1 1
6 6 6 6 6 6 3 3 4 6 8 8 8 8 9 9 9 8 6 4 4 4 4 4 4 5 4 8 9 9 3 3 2 2 2 5 5 5 5 4 3 2 1
7 7 6 6 6 5 3 3 4 6 6 5 6 7 8 8 8 7 5 5 5 5 4 4 4 4 6 8 11 10 4 4 3 3 3 3 7 7 6 5 4 5 3
7 7 6 7 6 4 3 4 5 4 3 5 6 7 7 7 6 7 6 6 6 6 5 5 4 4 5 8 9 12 11 8 4 4 3 4 8 8 7 4 5 6 4
8 7 6 7 6 5 3 5 4 2 4 5 6 6 7 6 7 8 8 7 6 6 5 5 5 5 4 6 13 14 13 13 6 5 8 9 10 8 5 7 7 5 2
8 7 7 7 7 6 5 5 4 3 4 6 6 6 7 7 7 6 7 7 7 7 6 6 6 5 5 5 5 5 6 10 8 5 7 10 10 7 6 6 4 2 3
7 7 7 8 8 7 6 5 4 3 5 5 6 6 7 7 7 7 7 8 7 8 8 7 6 6 6 9 13 8 6 5 5 4 2 2 2 3 3 3 3 3 3
8 8 8 8 8 8 7 6 4 3 5 5 6 6 6 6 6 6 6 11 10 14 15 13 10 8 11 11 14 16 15 15 13 8 4 5 5 5 5 5 4 4 5
Wind_Direction
235 220 207 195 185 183 180 181 179 179 173 170 171 170 177 173 168 167 170 170 164 161 158 160 163 160 168 193 210 220 253 264 264 308 306 296 282 277 276 276 273 276 267
241 222 205 197 191 188 187 187 186 181 180 181 174 168 159 158 161 155 153 159 156 155 154 154 153 151 156 166 177 168 216 269 191 192 298 316 327 321 321 330 324 317 6
224 214 202 201 196 195 192 192 189 182 181 172 152 126 107 100 127 156 155 153 145 137 133 142 143 142 146 165 188 181 188 232 264 200 206 239 269 307 313 345 17 22 39
223 211 201 199 200 202 195 191 187 183 179 170 169 166 170 179 183 171 160 146 137 134 132 131 137 141 140 153 182 174 183 190 231 255 232 222 215 246 297 317 349 27 41
218 209 203 201 202 195 187 185 176 177 177 177 178 176 178 172 146 140 145 143 133 134 129 128 130 130 128 133 140 158 172 197 216 222 236 248 240 225 235 273 301 0 35
213 210 205 193 190 174 167 166 165 172 173 175 179 182 177 163 155 159 162 156 144 132 129 127 125 125 123 127 135 159 168 205 232 234 225 223 230 227 222 242 250 251 78
202 198 190 183 178 174 174 170 166 170 170 170 176 180 176 171 171 168 167 158 153 148 146 130 130 129 132 131 127 152 214 236 244 249 249 247 246 242 233 238 245 237 176
172 176 183 184 183 182 177 174 172 170 171 172 173 170 164 163 164 160 156 155 152 148 147 134 128 123 119 110 101 132 247 222 250 267 263 253 260 254 241 237 224 241 224
152 157 163 175 182 185 189 186 177 171 170 167 156 154 152 150 148 143 136 136 137 137 139 135 132 127 121 117 113 145 266 268 253 263 291 264 307 343 291 266 232 223 229
107 117 157 187 193 189 183 175 175 175 167 159 156 144 139 137 137 136 138 136 132 130 134 131 131 129 126 117 112 155 198 165 158 72 77 63 44 38 12 330 301 259 230
102 95 78 141 162 165 173 179 178 168 163 157 143 133 131 126 124 125 130 131 129 134 138 140 136 136 131 118 125 152 159 152 118 90 99 77 57 58 23 9 15 9 265
62 64 70 83 147 184 190 187 182 173 166 151 138 135 130 126 125 130 134 132 132 134 135 135 135 136 130 127 141 145 142 147 138 116 105 87 81 68 42 35 38 29 15
38 32 29 354 245 225 211 198 186 176 160 147 141 138 140 140 140 141 139 136 136 133 130 133 139 138 139 139 137 136 127 121 114 106 103 92 96 80 60 54 44 20 19
28 14 348 310 280 248 224 207 197 177 162 152 151 154 158 155 149 145 142 142 142 142 139 137 140 143 143 142 143 138 126 114 100 92 91 87 96 104 91 65 42 35 59
12 354 330 309 294 273 246 219 202 184 167 160 164 167 159 150 144 143 144 143 146 148 146 141 141 143 146 155 154 149 141 131 116 98 86 87 99 112 109 102 73 76 90
347 336 326 318 301 272 253 231 210 193 174 173 175 164 156 153 153 151 149 148 148 148 149 153 153 157 164 168 170 158 147 143 138 127 103 86 71 81 82 88 87 99 122
334 331 318 302 290 276 250 233 217 190 180 181 175 167 162 161 162 158 157 160 161 160 161 162 160 165 178 180 177 169 144 144 147 149 149 140 115 89 68 66 57 47 60
331 322 314 306 297 283 267 241 209 188 186 183 178 173 168 167 163 163 169 168 162 167 167 170 169 168 189 187 177 160 134 135 146 158 164 159 155 163 144 112 79 45 27
312 304 299 293 293 290 277 241 208 191 188 190 186 179 173 169 169 175 176 170 164 167 170 170 171 174 191 188 177 153 136 144 165 180 182 177 192 204 163 138 131 84 351
319 313 313 305 302 298 285 231 215 200 203 200 189 176 172 173 178 178 170 163 162 172 170 176 182 182 193 197 187 169 155 166 186 205 215 209 206 213 182 158 165 188 222
314 316 317 315 306 305 291 251 232 223 217 190 173 172 174 175 173 167 162 161 163 167 176 184 193 196 205 209 203 192 175 182 189 202 213 231 223 217 211 189 186 211 197
319 321 321 317 314 311 294 271 257 244 194 174 175 176 174 171 166 165 168 169 172 180 189 194 203 213 214 217 219 214 207 197 191 202 206 221 226 224 225 211 209 222 192
315 318 315 314 314 311 294 276 275 236 189 180 183 179 173 171 168 173 177 180 186 193 196 199 210 215 213 222 225 224 219 213 200 206 212 217 226 226 229 230 230 224 182
314 314 312 310 309 311 302 278 272 232 196 192 187 178 176 177 178 181 185 190 194 199 201 203 212 215 213 214 219 221 225 222 215 207 220 223 227 221 219 234 240 208 195
313 312 307 303 303 307 303 288 270 228 211 204 193 187 186 185 189 195 199 200 205 203 203 206 205 205 216 221 212 202 207 201 200 175 181 195 205 215 215 220 225 219 219
311 311 309 306 304 303 299 290 269 233 217 213 204 197 192 192 194 197 208 217 215 221 223 219 212 219 225 226 220 217 217 216 211 199 197 209 215 220 222 223 224 219 219